User: anonymous   Login
Location: Ch�teau-Arnoux
(44.0814°N, 6.0027°E)
Time: 03:15:16
(UTC+00:00)
Language:

Cosmos 1680 Rocket - Orbit

View from above orbital plane
View from above orbital plane
View from above satellite
View from above satellite

Ground track
Ground track

The orbit data is extracted from the following two-line orbital elements,

1 16012U 85079B   20021.01143861  .00000148  00000-0  59346-4 0  9992
2 16012  74.0576 196.5771 0015690 226.5821 133.4027 14.36344391799872
Epoch (UTC): 21 January 2020 00:16:28
Eccentricity: 0.0015690
inclination: 74.0576°
perigee height: 759 km
apogee height: 782 km
right ascension of ascending node: 196.5771°
argument of perigee: 226.5821°
revolutions per day: 14.36344391
mean anomaly at epoch: 133.4027°
orbit number at epoch: 79987

The dashed part of the orbit path shows where the satellite is in the earth's shadow,  

DLR